Year,Month,Day,Hour,Minute,Value (Times are PST for windgust in km/hr)
2005,08,01,00,00,33.80
2005,08,01,00,01,27.40
2005,08,01,00,02,33.80
2005,08,01,00,03,41.80
2005,08,01,00,04,32.20
2005,08,01,00,05,20.90
2005,08,01,00,06,17.70
2005,08,01,00,07,29.00
2005,08,01,00,08,35.40
2005,08,01,00,09,27.40
2005,08,01,00,10,29.00
2005,08,01,00,11,19.30
2005,08,01,00,12,41.80
2005,08,01,00,13,29.00
2005,08,01,00,14,30.60
2005,08,01,00,15,33.80
2005,08,01,00,16,22.50
2005,08,01,00,17,29.00
2005,08,01,00,18,27.40
2005,08,01,00,19,32.20
2005,08,01,00,20,32.20
2005,08,01,00,21,27.40
2005,08,01,00,22,32.20
2005,08,01,00,23,33.80
2005,08,01,00,24,25.70
2005,08,01,00,25,32.20
2005,08,01,00,26,33.80
2005,08,01,00,27,29.00
2005,08,01,00,28,40.20
2005,08,01,00,29,24.20
2005,08,01,00,30,32.20
2005,08,01,00,31,25.70
2005,08,01,00,32,27.40
2005,08,01,00,33,33.80
2005,08,01,00,34,25.70
2005,08,01,00,35,38.60
2005,08,01,00,36,22.50
2005,08,01,00,37,29.00
2005,08,01,00,38,37.00
2005,08,01,00,39,35.40
2005,08,01,00,40,30.60
2005,08,01,00,41,32.20
2005,08,01,00,42,25.70
2005,08,01,00,43,24.20
2005,08,01,00,44,32.20
2005,08,01,00,45,30.60
2005,08,01,00,46,30.60
2005,08,01,00,47,27.40
2005,08,01,00,48,22.50
2005,08,01,00,49,33.80
2005,08,01,00,50,25.70
2005,08,01,00,51,27.40
2005,08,01,00,52,33.80
2005,08,01,00,53,25.70
2005,08,01,00,54,35.40
2005,08,01,00,55,24.20
2005,08,01,00,56,17.70
2005,08,01,00,57,22.50
2005,08,01,00,58,16.10
2005,08,01,00,59,27.40
2005,08,01,01,00,20.90
2005,08,01,01,01,24.20
2005,08,01,01,02,27.40
2005,08,01,01,03,19.30
2005,08,01,01,04,37.00
2005,08,01,01,05,30.60
2005,08,01,01,06,35.40
2005,08,01,01,07,32.20
2005,08,01,01,08,33.80
2005,08,01,01,09,43.50
2005,08,01,01,10,33.80
2005,08,01,01,11,46.70
2005,08,01,01,12,38.60
2005,08,01,01,13,20.90
2005,08,01,01,14,30.60
2005,08,01,01,15,32.20
2005,08,01,01,16,30.60
2005,08,01,01,17,40.20
2005,08,01,01,18,27.40
2005,08,01,01,19,32.20
2005,08,01,01,20,35.40
2005,08,01,01,21,27.40
2005,08,01,01,22,25.70
2005,08,01,01,23,32.20
2005,08,01,01,24,32.20
2005,08,01,01,25,37.00
2005,08,01,01,26,33.80
2005,08,01,01,27,30.60
2005,08,01,01,28,19.30
2005,08,01,01,29,27.40
2005,08,01,01,30,30.60
2005,08,01,01,31,29.00
2005,08,01,01,32,27.40
2005,08,01,01,33,41.80
2005,08,01,01,34,22.50
2005,08,01,01,35,20.90
2005,08,01,01,36,43.50
2005,08,01,01,37,37.00
2005,08,01,01,38,43.50
2005,08,01,01,39,41.80
2005,08,01,01,40,32.20
2005,08,01,01,41,33.80
2005,08,01,01,42,30.60
2005,08,01,01,43,37.00
2005,08,01,01,44,20.90
2005,08,01,01,45,35.40
2005,08,01,01,46,17.70
2005,08,01,01,47,35.40
2005,08,01,01,48,40.20
2005,08,01,01,49,40.20
2005,08,01,01,50,30.60
2005,08,01,01,51,32.20
2005,08,01,01,52,29.00
2005,08,01,01,53,43.50
2005,08,01,01,54,29.00
2005,08,01,01,55,25.70
2005,08,01,01,56,32.20
2005,08,01,01,57,37.00
2005,08,01,01,58,32.20
2005,08,01,01,59,35.40
2005,08,01,02,00,27.40
2005,08,01,02,01,27.40
2005,08,01,02,02,29.00
2005,08,01,02,03,29.00
2005,08,01,02,04,22.50
2005,08,01,02,05,30.60
2005,08,01,02,06,40.20
2005,08,01,02,07,46.70
2005,08,01,02,08,41.80
2005,08,01,02,09,37.00
2005,08,01,02,10,35.40
2005,08,01,02,11,29.00
2005,08,01,02,12,35.40
2005,08,01,02,13,30.60
2005,08,01,02,14,29.00
2005,08,01,02,15,40.20
2005,08,01,02,16,46.70
2005,08,01,02,17,46.70
2005,08,01,02,18,38.60
2005,08,01,02,19,43.50
2005,08,01,02,20,46.70
2005,08,01,02,21,29.00
2005,08,01,02,22,32.20
2005,08,01,02,23,32.20
2005,08,01,02,24,24.20
2005,08,01,02,25,38.60
2005,08,01,02,26,29.00
2005,08,01,02,27,40.20
2005,08,01,02,28,38.60
2005,08,01,02,29,20.90
2005,08,01,02,30,33.80
2005,08,01,02,31,33.80
2005,08,01,02,32,24.20
2005,08,01,02,33,37.00
2005,08,01,02,34,30.60
2005,08,01,02,35,32.20
2005,08,01,02,36,30.60
2005,08,01,02,37,40.20
2005,08,01,02,38,25.70
2005,08,01,02,39,24.20
2005,08,01,02,40,9.60
2005,08,01,02,41,33.80
2005,08,01,02,42,27.40
2005,08,01,02,43,27.40
2005,08,01,02,44,30.60
2005,08,01,02,45,41.80
2005,08,01,02,46,32.20
2005,08,01,02,47,38.60
2005,08,01,02,48,35.40
2005,08,01,02,49,38.60
2005,08,01,02,50,38.60
2005,08,01,02,51,33.80
2005,08,01,02,52,20.90
2005,08,01,02,53,35.40
2005,08,01,02,54,32.20
2005,08,01,02,55,27.40
2005,08,01,02,56,27.40
2005,08,01,02,57,29.00
2005,08,01,02,58,32.20
2005,08,01,02,59,33.80
2005,08,01,03,00,38.60
2005,08,01,03,01,30.60
2005,08,01,03,02,38.60
2005,08,01,03,03,32.20
2005,08,01,03,04,22.50
2005,08,01,03,05,32.20
2005,08,01,03,06,38.60
2005,08,01,03,07,32.20
2005,08,01,03,08,24.20
2005,08,01,03,09,25.70
2005,08,01,03,10,30.60
2005,08,01,03,11,30.60
2005,08,01,03,12,33.80
2005,08,01,03,13,33.80
2005,08,01,03,14,35.40
2005,08,01,03,15,27.40
2005,08,01,03,16,19.30
2005,08,01,03,17,38.60
2005,08,01,03,18,30.60
2005,08,01,03,19,43.50
2005,08,01,03,20,22.50
2005,08,01,03,21,24.20
2005,08,01,03,22,25.70
2005,08,01,03,23,30.60
2005,08,01,03,24,35.40
2005,08,01,03,25,20.90
2005,08,01,03,26,30.60
2005,08,01,03,27,37.00
2005,08,01,03,28,30.60
2005,08,01,03,29,25.70
2005,08,01,03,30,32.20
2005,08,01,03,31,33.80
2005,08,01,03,32,30.60
2005,08,01,03,33,22.50
2005,08,01,03,34,17.70
2005,08,01,03,35,25.70
2005,08,01,03,36,20.90
2005,08,01,03,37,32.20
2005,08,01,03,38,22.50
2005,08,01,03,39,9.60
2005,08,01,03,40,25.70
2005,08,01,03,41,20.90
2005,08,01,03,42,30.60
2005,08,01,03,43,22.50
2005,08,01,03,44,22.50
2005,08,01,03,45,20.90
2005,08,01,03,46,16.10
2005,08,01,03,47,20.90
2005,08,01,03,48,19.30
2005,08,01,03,49,19.30
2005,08,01,03,50,19.30
2005,08,01,03,51,22.50
2005,08,01,03,52,11.30
2005,08,01,03,53,9.60
2005,08,01,03,54,22.50
2005,08,01,03,55,22.50
2005,08,01,03,56,14.50
2005,08,01,03,57,22.50
2005,08,01,03,58,4.80
2005,08,01,03,59,17.70
2005,08,01,04,00,9.60
2005,08,01,04,01,16.10
2005,08,01,04,02,19.30
2005,08,01,04,03,11.30
2005,08,01,04,04,25.70
2005,08,01,04,05,16.10
2005,08,01,04,06,9.60
2005,08,01,04,07,19.30
2005,08,01,04,08,14.50
2005,08,01,04,09,8.10
2005,08,01,04,10,6.40
2005,08,01,04,11,9.60
2005,08,01,04,12,6.40
2005,08,01,04,13,4.80
2005,08,01,04,14,6.40
2005,08,01,04,15,22.50
2005,08,01,04,16,11.30
2005,08,01,04,17,17.70
2005,08,01,04,18,16.10
2005,08,01,04,19,14.50
2005,08,01,04,20,16.10
2005,08,01,04,21,19.30
2005,08,01,04,22,17.70
2005,08,01,04,23,9.60
2005,08,01,04,24,19.30
2005,08,01,04,25,12.90
2005,08,01,04,26,14.50
2005,08,01,04,27,9.60
2005,08,01,04,28,16.10
2005,08,01,04,29,16.10
2005,08,01,04,30,9.60
2005,08,01,04,31,24.20
2005,08,01,04,32,33.80
2005,08,01,04,33,17.70
2005,08,01,04,34,25.70
2005,08,01,04,35,14.50
2005,08,01,04,36,29.00
2005,08,01,04,37,17.70
2005,08,01,04,38,22.50
2005,08,01,04,39,27.40
2005,08,01,04,40,25.70
2005,08,01,04,41,24.20
2005,08,01,04,42,24.20
2005,08,01,04,43,20.90
2005,08,01,04,44,30.60
2005,08,01,04,45,19.30
2005,08,01,04,46,27.40
2005,08,01,04,47,25.70
2005,08,01,04,48,29.00
2005,08,01,04,49,30.60
2005,08,01,04,50,25.70
2005,08,01,04,51,22.50
2005,08,01,04,52,33.80
2005,08,01,04,53,29.00
2005,08,01,04,54,27.40
2005,08,01,04,55,30.60
2005,08,01,04,56,29.00
2005,08,01,04,57,29.00
2005,08,01,04,58,25.70
2005,08,01,04,59,22.50
2005,08,01,05,00,22.50
2005,08,01,05,01,19.30
2005,08,01,05,02,19.30
2005,08,01,05,03,24.20
2005,08,01,05,04,30.60
2005,08,01,05,05,22.50
2005,08,01,05,06,30.60
2005,08,01,05,07,25.70
2005,08,01,05,08,20.90
2005,08,01,05,09,16.10
2005,08,01,05,10,17.70
2005,08,01,05,11,22.50
2005,08,01,05,12,17.70
2005,08,01,05,13,17.70
2005,08,01,05,14,24.20
2005,08,01,05,15,22.50
2005,08,01,05,16,19.30
2005,08,01,05,17,25.70
2005,08,01,05,18,20.90
2005,08,01,05,19,11.30
2005,08,01,05,20,19.30
2005,08,01,05,21,19.30
2005,08,01,05,22,16.10
2005,08,01,05,23,17.70
2005,08,01,05,24,14.50
2005,08,01,05,25,20.90
2005,08,01,05,26,25.70
2005,08,01,05,27,12.90
2005,08,01,05,28,16.10
2005,08,01,05,29,14.50
2005,08,01,05,30,20.90
2005,08,01,05,31,19.30
2005,08,01,05,32,16.10
2005,08,01,05,33,16.10
2005,08,01,05,34,19.30
2005,08,01,05,35,8.10
2005,08,01,05,36,22.50
2005,08,01,05,37,20.90
2005,08,01,05,38,17.70
2005,08,01,05,39,17.70
2005,08,01,05,40,24.20
2005,08,01,05,41,22.50
2005,08,01,05,42,29.00
2005,08,01,05,43,20.90
2005,08,01,05,44,24.20
2005,08,01,05,45,24.20
2005,08,01,05,46,24.20
2005,08,01,05,47,9.60
2005,08,01,05,48,29.00
2005,08,01,05,49,27.40
2005,08,01,05,50,22.50
2005,08,01,05,51,20.90
2005,08,01,05,52,8.10
2005,08,01,05,53,22.50
2005,08,01,05,54,9.60
2005,08,01,05,55,17.70
2005,08,01,05,56,17.70
2005,08,01,05,57,19.30
2005,08,01,05,58,8.10
2005,08,01,05,59,8.10
2005,08,01,06,00,4.80
2005,08,01,06,01,9.60
2005,08,01,06,02,9.60
2005,08,01,06,03,8.10
2005,08,01,06,04,6.40
2005,08,01,06,05,17.70
2005,08,01,06,06,9.60
2005,08,01,06,07,14.50
2005,08,01,06,08,11.30
2005,08,01,06,09,16.10
2005,08,01,06,10,12.90
2005,08,01,06,11,14.50
2005,08,01,06,12,9.60
2005,08,01,06,13,6.40
2005,08,01,06,14,16.10
2005,08,01,06,15,16.10
2005,08,01,06,16,9.60
2005,08,01,06,17,19.30
2005,08,01,06,18,17.70
2005,08,01,06,19,17.70
2005,08,01,06,20,14.50
2005,08,01,06,21,16.10
2005,08,01,06,22,12.90
2005,08,01,06,23,17.70
2005,08,01,06,24,17.70
2005,08,01,06,25,19.30
2005,08,01,06,26,17.70
2005,08,01,06,27,22.50
2005,08,01,06,28,16.10
2005,08,01,06,29,16.10
2005,08,01,06,30,16.10
2005,08,01,06,31,20.90
2005,08,01,06,32,19.30
2005,08,01,06,33,20.90
2005,08,01,06,34,14.50
2005,08,01,06,35,11.30
2005,08,01,06,36,11.30
2005,08,01,06,37,11.30
2005,08,01,06,38,11.30
2005,08,01,06,39,11.30
2005,08,01,06,40,11.30
2005,08,01,06,41,9.60
2005,08,01,06,42,8.10
2005,08,01,06,43,11.30
2005,08,01,06,44,6.40
2005,08,01,06,45,9.60
2005,08,01,06,46,9.60
2005,08,01,06,47,6.40
2005,08,01,06,48,6.40
2005,08,01,06,49,4.80
2005,08,01,06,50,11.30
2005,08,01,06,51,6.40
2005,08,01,06,52,4.80
2005,08,01,06,53,1.60
2005,08,01,06,54,11.30
2005,08,01,06,55,8.10
2005,08,01,06,56,14.50
2005,08,01,06,57,11.30
2005,08,01,06,58,16.10
2005,08,01,06,59,14.50
2005,08,01,07,00,11.30
2005,08,01,07,01,9.60
2005,08,01,07,02,11.30
2005,08,01,07,03,9.60
2005,08,01,07,04,11.30
2005,08,01,07,05,8.10
2005,08,01,07,06,6.40
2005,08,01,07,07,11.30
2005,08,01,07,08,4.80
2005,08,01,07,09,6.40
2005,08,01,07,10,6.40
2005,08,01,07,11,4.80
2005,08,01,07,12,6.40
2005,08,01,07,13,8.10
2005,08,01,07,14,6.40
2005,08,01,07,15,8.10
2005,08,01,07,16,4.80
2005,08,01,07,17,6.40
2005,08,01,07,18,6.40
2005,08,01,07,19,6.40
2005,08,01,07,20,6.40
2005,08,01,07,21,8.10
2005,08,01,07,22,8.10
2005,08,01,07,23,6.40
2005,08,01,07,24,9.60
2005,08,01,07,25,11.30
2005,08,01,07,26,8.10
2005,08,01,07,27,11.30
2005,08,01,07,28,9.60
2005,08,01,07,29,8.10
2005,08,01,07,30,4.80
2005,08,01,07,31,8.10
2005,08,01,07,32,6.40
2005,08,01,07,33,16.10
2005,08,01,07,34,8.10
2005,08,01,07,35,6.40
2005,08,01,07,36,9.60
2005,08,01,07,37,9.60
2005,08,01,07,38,8.10
2005,08,01,07,39,4.80
2005,08,01,07,40,6.40
2005,08,01,07,41,11.30
2005,08,01,07,42,14.50
2005,08,01,07,43,11.30
2005,08,01,07,44,14.50
2005,08,01,07,45,19.30
2005,08,01,07,46,8.10
2005,08,01,07,47,8.10
2005,08,01,07,48,9.60
2005,08,01,07,49,9.60
2005,08,01,07,50,8.10
2005,08,01,07,51,11.30
2005,08,01,07,52,9.60
2005,08,01,07,53,9.60
2005,08,01,07,54,8.10
2005,08,01,07,55,14.50
2005,08,01,07,56,9.60
2005,08,01,07,57,9.60
2005,08,01,07,58,9.60
2005,08,01,07,59,8.10
2005,08,01,08,00,16.10
2005,08,01,08,01,12.90
2005,08,01,08,02,11.30
2005,08,01,08,03,9.60
2005,08,01,08,04,6.40
2005,08,01,08,05,11.30
2005,08,01,08,06,9.60
2005,08,01,08,07,8.10
2005,08,01,08,08,11.30
2005,08,01,08,09,8.10
2005,08,01,08,10,6.40
2005,08,01,08,11,9.60
2005,08,01,08,12,9.60
2005,08,01,08,13,19.30
2005,08,01,08,14,14.50
2005,08,01,08,15,8.10
2005,08,01,08,16,11.30
2005,08,01,08,17,14.50
2005,08,01,08,18,9.60
2005,08,01,08,19,14.50
2005,08,01,08,20,12.90
2005,08,01,08,21,20.90
2005,08,01,08,22,11.30
2005,08,01,08,23,9.60
2005,08,01,08,24,11.30
2005,08,01,08,25,9.60
2005,08,01,08,26,9.60
2005,08,01,08,27,11.30
2005,08,01,08,28,6.40
2005,08,01,08,29,9.60
2005,08,01,08,30,9.60
2005,08,01,08,31,17.70
2005,08,01,08,32,9.60
2005,08,01,08,33,9.60
2005,08,01,08,34,14.50
2005,08,01,08,35,9.60
2005,08,01,08,36,4.80
2005,08,01,08,37,8.10
2005,08,01,08,38,6.40
2005,08,01,08,39,9.60
2005,08,01,08,40,8.10
2005,08,01,08,41,4.80
2005,08,01,08,42,11.30
2005,08,01,08,43,8.10
2005,08,01,08,44,4.80
2005,08,01,08,45,6.40
2005,08,01,08,46,6.40
2005,08,01,08,47,9.60
2005,08,01,08,48,9.60
2005,08,01,08,49,6.40
2005,08,01,08,50,4.80
2005,08,01,08,51,6.40
2005,08,01,08,52,6.40
2005,08,01,08,53,8.10
2005,08,01,08,54,9.60
2005,08,01,08,55,4.80
2005,08,01,08,56,3.20
2005,08,01,08,57,4.80
2005,08,01,08,58,8.10
2005,08,01,08,59,8.10
2005,08,01,09,00,9.60
2005,08,01,09,01,6.40
2005,08,01,09,02,6.40
2005,08,01,09,03,11.30
2005,08,01,09,04,9.60
2005,08,01,09,05,8.10
2005,08,01,09,06,9.60
2005,08,01,09,07,8.10
2005,08,01,09,08,8.10
2005,08,01,09,09,9.60
2005,08,01,09,10,4.80
2005,08,01,09,11,8.10
2005,08,01,09,12,16.10
2005,08,01,09,13,6.40
2005,08,01,09,14,6.40
2005,08,01,09,15,9.60
2005,08,01,09,16,8.10
2005,08,01,09,17,8.10
2005,08,01,09,18,11.30
2005,08,01,09,19,6.40
2005,08,01,09,20,11.30
2005,08,01,09,21,11.30
2005,08,01,09,22,11.30
2005,08,01,09,23,12.90
2005,08,01,09,24,11.30
2005,08,01,09,25,16.10
2005,08,01,09,26,11.30
2005,08,01,09,27,8.10
2005,08,01,09,28,9.60
2005,08,01,09,29,11.30
2005,08,01,09,30,9.60
2005,08,01,09,31,8.10
2005,08,01,09,32,8.10
2005,08,01,09,33,16.10
2005,08,01,09,34,9.60
2005,08,01,09,35,11.30
2005,08,01,09,36,11.30
2005,08,01,09,37,9.60
2005,08,01,09,38,6.40
2005,08,01,09,39,6.40
2005,08,01,09,40,6.40
2005,08,01,09,41,19.30
2005,08,01,09,42,6.40
2005,08,01,09,43,6.40
2005,08,01,09,44,9.60
2005,08,01,09,45,9.60
2005,08,01,09,46,6.40
2005,08,01,09,47,9.60
2005,08,01,09,48,6.40
2005,08,01,09,49,6.40
2005,08,01,09,50,4.80
2005,08,01,09,51,6.40
2005,08,01,09,52,4.80
2005,08,01,09,53,8.10
2005,08,01,09,54,6.40
2005,08,01,09,55,16.10
2005,08,01,09,56,11.30
2005,08,01,09,57,9.60
2005,08,01,09,58,8.10
2005,08,01,09,59,11.30
2005,08,01,10,00,12.90
2005,08,01,10,01,8.10
2005,08,01,10,02,9.60
2005,08,01,10,03,8.10
2005,08,01,10,04,8.10
2005,08,01,10,05,11.30
2005,08,01,10,06,14.50
2005,08,01,10,07,8.10
2005,08,01,10,08,6.40
2005,08,01,10,09,16.10
2005,08,01,10,10,12.90
2005,08,01,10,11,11.30
2005,08,01,10,12,9.60
2005,08,01,10,13,16.10
2005,08,01,10,14,14.50
2005,08,01,10,15,8.10
2005,08,01,10,16,8.10
2005,08,01,10,17,6.40
2005,08,01,10,18,12.90
2005,08,01,10,19,9.60
2005,08,01,10,20,16.10
2005,08,01,10,21,9.60
2005,08,01,10,22,11.30
2005,08,01,10,23,9.60
2005,08,01,10,24,16.10
2005,08,01,10,25,9.60
2005,08,01,10,26,11.30
2005,08,01,10,27,16.10
2005,08,01,10,28,14.50
2005,08,01,10,29,11.30
2005,08,01,10,30,8.10
2005,08,01,10,31,11.30
2005,08,01,10,32,14.50
2005,08,01,10,33,9.60
2005,08,01,10,34,11.30
2005,08,01,10,35,16.10
2005,08,01,10,36,11.30
2005,08,01,10,37,11.30
2005,08,01,10,38,11.30
2005,08,01,10,39,11.30
2005,08,01,10,40,14.50
2005,08,01,10,41,11.30
2005,08,01,10,42,14.50
2005,08,01,10,43,16.10
2005,08,01,10,44,16.10
2005,08,01,10,45,17.70
2005,08,01,10,46,16.10
2005,08,01,10,47,12.90
2005,08,01,10,48,11.30
2005,08,01,10,49,11.30
2005,08,01,10,50,16.10
2005,08,01,10,51,16.10
2005,08,01,10,52,16.10
2005,08,01,10,53,12.90
2005,08,01,10,54,16.10
2005,08,01,10,55,14.50
2005,08,01,10,56,12.90
2005,08,01,10,57,6.40
2005,08,01,10,58,4.80
2005,08,01,10,59,8.10
2005,08,01,11,00,8.10
2005,08,01,11,01,9.60
2005,08,01,11,02,9.60
2005,08,01,11,03,11.30
2005,08,01,11,04,8.10
2005,08,01,11,05,16.10
2005,08,01,11,06,14.50
2005,08,01,11,07,16.10
2005,08,01,11,08,14.50
2005,08,01,11,09,20.90
2005,08,01,11,10,14.50
2005,08,01,11,11,19.30
2005,08,01,11,12,11.30
2005,08,01,11,13,16.10
2005,08,01,11,14,17.70
2005,08,01,11,15,19.30
2005,08,01,11,16,14.50
2005,08,01,11,17,12.90
2005,08,01,11,18,14.50
2005,08,01,11,19,16.10
2005,08,01,11,20,17.70
2005,08,01,11,21,14.50
2005,08,01,11,22,16.10
2005,08,01,11,23,9.60
2005,08,01,11,24,11.30
2005,08,01,11,25,11.30
2005,08,01,11,26,9.60
2005,08,01,11,27,17.70
2005,08,01,11,28,9.60
2005,08,01,11,29,9.60
2005,08,01,11,30,14.50
2005,08,01,11,31,9.60
2005,08,01,11,32,9.60
2005,08,01,11,33,12.90
2005,08,01,11,34,22.50
2005,08,01,11,35,11.30
2005,08,01,11,36,11.30
2005,08,01,11,37,11.30
2005,08,01,11,38,14.50
2005,08,01,11,39,12.90
2005,08,01,11,40,19.30
2005,08,01,11,41,16.10
2005,08,01,11,42,17.70
2005,08,01,11,43,16.10
2005,08,01,11,44,11.30
2005,08,01,11,45,12.90
2005,08,01,11,46,9.60
2005,08,01,11,47,17.70
2005,08,01,11,48,22.50
2005,08,01,11,49,17.70
2005,08,01,11,50,12.90
2005,08,01,11,51,6.40
2005,08,01,11,52,19.30
2005,08,01,11,53,17.70
2005,08,01,11,54,20.90
2005,08,01,11,55,14.50
2005,08,01,11,56,19.30
2005,08,01,11,57,14.50
2005,08,01,11,58,8.10
2005,08,01,11,59,14.50
2005,08,01,12,00,17.70
2005,08,01,12,01,19.30
2005,08,01,12,02,14.50
2005,08,01,12,03,9.60
2005,08,01,12,04,16.10
2005,08,01,12,05,17.70
2005,08,01,12,06,14.50
2005,08,01,12,07,16.10
2005,08,01,12,08,14.50
2005,08,01,12,09,11.30
2005,08,01,12,10,8.10
2005,08,01,12,11,8.10
2005,08,01,12,12,14.50
2005,08,01,12,13,14.50
2005,08,01,12,14,11.30
2005,08,01,12,15,22.50
2005,08,01,12,16,6.40
2005,08,01,12,17,8.10
2005,08,01,12,18,14.50
2005,08,01,12,19,8.10
2005,08,01,12,20,19.30
2005,08,01,12,21,11.30
2005,08,01,12,22,6.40
2005,08,01,12,23,9.60
2005,08,01,12,24,8.10
2005,08,01,12,25,8.10
2005,08,01,12,26,6.40
2005,08,01,12,27,16.10
2005,08,01,12,28,8.10
2005,08,01,12,29,11.30
2005,08,01,12,30,16.10
2005,08,01,12,31,17.70
2005,08,01,12,32,14.50
2005,08,01,12,33,14.50
2005,08,01,12,34,17.70
2005,08,01,12,35,11.30
2005,08,01,12,36,19.30
2005,08,01,12,37,17.70
2005,08,01,12,38,9.60
2005,08,01,12,39,19.30
2005,08,01,12,40,16.10
2005,08,01,12,41,14.50
2005,08,01,12,42,16.10
2005,08,01,12,43,16.10
2005,08,01,12,44,16.10
2005,08,01,12,45,14.50
2005,08,01,12,46,16.10
2005,08,01,12,47,16.10
2005,08,01,12,48,22.50
2005,08,01,12,49,17.70
2005,08,01,12,50,17.70
2005,08,01,12,51,16.10
2005,08,01,12,52,16.10
2005,08,01,12,53,14.50
2005,08,01,12,54,14.50
2005,08,01,12,55,20.90
2005,08,01,12,56,17.70
2005,08,01,12,57,19.30
2005,08,01,12,58,11.30
2005,08,01,12,59,9.60
2005,08,01,13,00,8.10
2005,08,01,13,01,12.90
2005,08,01,13,02,12.90
2005,08,01,13,03,16.10
2005,08,01,13,04,16.10
2005,08,01,13,05,17.70
2005,08,01,13,06,22.50
2005,08,01,13,07,17.70
2005,08,01,13,08,6.40
2005,08,01,13,09,14.50
2005,08,01,13,10,17.70
2005,08,01,13,11,17.70
2005,08,01,13,12,14.50
2005,08,01,13,13,8.10
2005,08,01,13,14,11.30
2005,08,01,13,15,12.90
2005,08,01,13,16,11.30
2005,08,01,13,17,14.50
2005,08,01,13,18,14.50
2005,08,01,13,19,20.90
2005,08,01,13,20,17.70
2005,08,01,13,21,20.90
2005,08,01,13,22,20.90
2005,08,01,13,23,14.50
2005,08,01,13,24,17.70
2005,08,01,13,25,16.10
2005,08,01,13,26,20.90
2005,08,01,13,27,19.30
2005,08,01,13,28,17.70
2005,08,01,13,29,19.30
2005,08,01,13,30,16.10
2005,08,01,13,31,14.50
2005,08,01,13,32,8.10
2005,08,01,13,33,16.10
2005,08,01,13,34,11.30
2005,08,01,13,35,19.30
2005,08,01,13,36,16.10
2005,08,01,13,37,16.10
2005,08,01,13,38,14.50
2005,08,01,13,39,17.70
2005,08,01,13,40,19.30
2005,08,01,13,41,19.30
2005,08,01,13,42,16.10
2005,08,01,13,43,17.70
2005,08,01,13,44,14.50
2005,08,01,13,45,8.10
2005,08,01,13,46,12.90
2005,08,01,13,47,9.60
2005,08,01,13,48,20.90
2005,08,01,13,49,17.70
2005,08,01,13,50,14.50
2005,08,01,13,51,16.10
2005,08,01,13,52,9.60
2005,08,01,13,53,19.30
2005,08,01,13,54,8.10
2005,08,01,13,55,11.30
2005,08,01,13,56,12.90
2005,08,01,13,57,9.60
2005,08,01,13,58,4.80
2005,08,01,13,59,14.50
2005,08,01,14,00,17.70
2005,08,01,14,01,16.10
2005,08,01,14,02,19.30
2005,08,01,14,03,14.50
2005,08,01,14,04,11.30
2005,08,01,14,05,19.30
2005,08,01,14,06,12.90
2005,08,01,14,07,9.60
2005,08,01,14,08,8.10
2005,08,01,14,09,8.10
2005,08,01,14,10,20.90
2005,08,01,14,11,19.30
2005,08,01,14,12,14.50
2005,08,01,14,13,6.40
2005,08,01,14,14,19.30
2005,08,01,14,15,14.50
2005,08,01,14,16,14.50
2005,08,01,14,17,16.10
2005,08,01,14,18,16.10
2005,08,01,14,19,11.30
2005,08,01,14,20,17.70
2005,08,01,14,21,11.30
2005,08,01,14,22,11.30
2005,08,01,14,23,11.30
2005,08,01,14,24,4.80
2005,08,01,14,25,8.10
2005,08,01,14,26,9.60
2005,08,01,14,27,9.60
2005,08,01,14,28,11.30
2005,08,01,14,29,9.60
2005,08,01,14,30,8.10
2005,08,01,14,31,16.10
2005,08,01,14,32,6.40
2005,08,01,14,33,14.50
2005,08,01,14,34,14.50
2005,08,01,14,35,16.10
2005,08,01,14,36,11.30
2005,08,01,14,37,12.90
2005,08,01,14,38,11.30
2005,08,01,14,39,9.60
2005,08,01,14,40,11.30
2005,08,01,14,41,16.10
2005,08,01,14,42,17.70
2005,08,01,14,43,11.30
2005,08,01,14,44,22.50
2005,08,01,14,45,14.50
2005,08,01,14,46,11.30
2005,08,01,14,47,20.90
2005,08,01,14,48,16.10
2005,08,01,14,49,9.60
2005,08,01,14,50,16.10
2005,08,01,14,51,14.50
2005,08,01,14,52,14.50
2005,08,01,14,53,17.70
2005,08,01,14,54,17.70
2005,08,01,14,55,8.10
2005,08,01,14,56,14.50
2005,08,01,14,57,3.20
2005,08,01,14,58,4.80
2005,08,01,14,59,16.10
2005,08,01,15,00,8.10
2005,08,01,15,01,9.60
2005,08,01,15,02,11.30
2005,08,01,15,03,8.10
2005,08,01,15,04,6.40
2005,08,01,15,05,14.50
2005,08,01,15,06,9.60
2005,08,01,15,07,9.60
2005,08,01,15,08,19.30
2005,08,01,15,09,12.90
2005,08,01,15,10,9.60
2005,08,01,15,11,16.10
2005,08,01,15,12,9.60
2005,08,01,15,13,8.10
2005,08,01,15,14,17.70
2005,08,01,15,15,19.30
2005,08,01,15,16,11.30
2005,08,01,15,17,8.10
2005,08,01,15,18,14.50
2005,08,01,15,19,16.10
2005,08,01,15,20,8.10
2005,08,01,15,21,6.40
2005,08,01,15,22,6.40
2005,08,01,15,23,4.80
2005,08,01,15,24,9.60
2005,08,01,15,25,11.30
2005,08,01,15,26,16.10
2005,08,01,15,27,14.50
2005,08,01,15,28,16.10
2005,08,01,15,29,11.30
2005,08,01,15,30,6.40
2005,08,01,15,31,9.60
2005,08,01,15,32,8.10
2005,08,01,15,33,4.80
2005,08,01,15,34,9.60
2005,08,01,15,35,9.60
2005,08,01,15,36,11.30
2005,08,01,15,37,14.50
2005,08,01,15,38,17.70
2005,08,01,15,39,9.60
2005,08,01,15,40,9.60
2005,08,01,15,41,8.10
2005,08,01,15,42,16.10
2005,08,01,15,43,8.10
2005,08,01,15,44,8.10
2005,08,01,15,45,9.60
2005,08,01,15,46,8.10
2005,08,01,15,47,12.90
2005,08,01,15,48,8.10
2005,08,01,15,49,8.10
2005,08,01,15,50,9.60
2005,08,01,15,51,11.30
2005,08,01,15,52,9.60
2005,08,01,15,53,9.60
2005,08,01,15,54,9.60
2005,08,01,15,55,9.60
2005,08,01,15,56,8.10
2005,08,01,15,57,6.40
2005,08,01,15,58,8.10
2005,08,01,15,59,11.30
2005,08,01,16,00,14.50
2005,08,01,16,01,14.50
2005,08,01,16,02,17.70
2005,08,01,16,03,17.70
2005,08,01,16,04,16.10
2005,08,01,16,05,11.30
2005,08,01,16,06,17.70
2005,08,01,16,07,8.10
2005,08,01,16,08,14.50
2005,08,01,16,09,12.90
2005,08,01,16,10,12.90
2005,08,01,16,11,14.50
2005,08,01,16,12,22.50
2005,08,01,16,13,19.30
2005,08,01,16,14,25.70
2005,08,01,16,15,19.30
2005,08,01,16,16,17.70
2005,08,01,16,17,11.30
2005,08,01,16,18,11.30
2005,08,01,16,19,17.70
2005,08,01,16,20,8.10
2005,08,01,16,21,19.30
2005,08,01,16,22,19.30
2005,08,01,16,23,22.50
2005,08,01,16,24,9.60
2005,08,01,16,25,20.90
2005,08,01,16,26,24.20
2005,08,01,16,27,24.20
2005,08,01,16,28,17.70
2005,08,01,16,29,9.60
2005,08,01,16,30,16.10
2005,08,01,16,31,20.90
2005,08,01,16,32,29.00
2005,08,01,16,33,19.30
2005,08,01,16,34,19.30
2005,08,01,16,35,14.50
2005,08,01,16,36,16.10
2005,08,01,16,37,19.30
2005,08,01,16,38,20.90
2005,08,01,16,39,27.40
2005,08,01,16,40,25.70
2005,08,01,16,41,14.50
2005,08,01,16,42,11.30
2005,08,01,16,43,20.90
2005,08,01,16,44,33.80
2005,08,01,16,45,20.90
2005,08,01,16,46,14.50
2005,08,01,16,47,17.70
2005,08,01,16,48,17.70
2005,08,01,16,49,16.10
2005,08,01,16,50,22.50
2005,08,01,16,51,16.10
2005,08,01,16,52,20.90
2005,08,01,16,53,19.30
2005,08,01,16,54,19.30
2005,08,01,16,55,33.80
2005,08,01,16,56,19.30
2005,08,01,16,57,22.50
2005,08,01,16,58,20.90
2005,08,01,16,59,25.70
2005,08,01,17,00,22.50
2005,08,01,17,01,11.30
2005,08,01,17,02,16.10
2005,08,01,17,03,20.90
2005,08,01,17,04,9.60
2005,08,01,17,05,19.30
2005,08,01,17,06,16.10
2005,08,01,17,07,19.30
2005,08,01,17,08,16.10
2005,08,01,17,09,11.30
2005,08,01,17,10,8.10
2005,08,01,17,11,9.60
2005,08,01,17,12,8.10
2005,08,01,17,13,20.90
2005,08,01,17,14,11.30
2005,08,01,17,15,19.30
2005,08,01,17,16,19.30
2005,08,01,17,17,11.30
2005,08,01,17,18,14.50
2005,08,01,17,19,14.50
2005,08,01,17,20,11.30
2005,08,01,17,21,11.30
2005,08,01,17,22,11.30
2005,08,01,17,23,14.50
2005,08,01,17,24,16.10
2005,08,01,17,25,17.70
2005,08,01,17,26,19.30
2005,08,01,17,27,17.70
2005,08,01,17,28,16.10
2005,08,01,17,29,16.10
2005,08,01,17,30,11.30
2005,08,01,17,31,11.30
2005,08,01,17,32,16.10